TimeCST,TemperatureF,Dew PointF,Humidity,Sea Level PressureIn,VisibilityMPH,Wind Direction,Wind SpeedMPH,Gust SpeedMPH,PrecipitationIn,Events,Conditions,WindDirDegrees,DateUTC
12:00 AM,-11,-18,57,29.20,15,East,10.4,,,Snow,Light Snow,90,2013-11-15 06:00:00
12:00 AM,-11.2,-18.4,70,29.20,15.0,East,10.4,-,N/A,,Mostly Cloudy,80,2013-11-15 06:00:00
1:00 AM,-11.2,-18.4,70,29.19,15.0,East,6.9,-,N/A,,Mostly Cloudy,80,2013-11-15 07:00:00
1:25 AM,-9999,-9999,N/A,-9999,15.0,East,2.3,-,N/A,,Unknown,80,2013-11-15 07:25:00
2:00 AM,-9.4,-14.8,77,29.18,15.0,East,9.2,-,N/A,Snow,Light Snow,80,2013-11-15 08:00:00
3:00 AM,-7.6,-14.8,71,29.16,15.0,East,12.7,-,N/A,Snow,Light Snow,80,2013-11-15 09:00:00
4:00 AM,-5.8,-13.0,71,29.16,10.0,ESE,11.5,-,N/A,Snow,Light Snow,110,2013-11-15 10:00:00
5:00 AM,-5.8,-11.2,77,29.14,10.0,ESE,12.7,-,N/A,Snow,Light Snow,110,2013-11-15 11:00:00
6:00 AM,-5,-10,66,29.13,12,ESE,16.1,,,Snow,Light Snow,120,2013-11-15 12:00:00
6:00 AM,-4.0,-11.2,71,29.13,12.0,ESE,16.1,-,N/A,Snow,Light Snow,120,2013-11-15 12:00:00
7:00 AM,-4.0,-11.2,71,29.12,10.0,East,16.1,-,N/A,Snow,Light Snow,100,2013-11-15 13:00:00
8:00 AM,-2.2,-7.6,78,29.11,10.0,SE,15.0,-,N/A,Snow,Light Snow,130,2013-11-15 14:00:00
9:00 AM,-2.2,-9.4,71,29.11,6.0,ESE,12.7,18.4,N/A,Snow,Light Snow,120,2013-11-15 15:00:00
10:00 AM,-2.2,-7.6,78,29.10,6.0,SE,18.4,-,N/A,Snow,Light Snow,130,2013-11-15 16:00:00
11:00 AM,-2.2,-7.6,78,29.10,6.0,SE,18.4,-,N/A,Snow,Light Snow,130,2013-11-15 17:00:00
12:00 PM,-1,-7,65,29.10,6,SE,15.0,,,Snow,Light Snow,130,2013-11-15 18:00:00
12:00 PM,-0.4,-7.6,72,29.10,6.0,SE,16.1,-,N/A,Snow,Light Snow,130,2013-11-15 18:00:00
1:00 PM,-0.4,-7.6,72,29.09,6.0,SE,17.3,-,N/A,Snow,Light Snow,130,2013-11-15 19:00:00
2:00 PM,-0.4,-5.8,78,29.09,7.0,SE,16.1,-,N/A,Snow,Light Snow,130,2013-11-15 20:00:00
3:00 PM,-0.4,-7.6,72,29.09,8.0,SE,13.8,-,N/A,Snow,Light Snow,130,2013-11-15 21:00:00
4:00 PM,-0.4,-5.8,78,29.10,15.0,SE,11.5,-,N/A,Snow,Light Snow,130,2013-11-15 22:00:00
5:00 PM,-0.4,-5.8,78,29.10,12.0,SE,8.1,-,N/A,Snow,Light Snow,130,2013-11-15 23:00:00
6:00 PM,-1,-6,69,29.10,15,SE,9.2,,,Snow,Light Snow,140,2013-11-16 00:00:00
6:00 PM,-0.4,-5.8,78,29.10,15.0,SE,9.2,-,N/A,Snow,Light Snow,140,2013-11-16 00:00:00
7:00 PM,-2.2,-9.4,71,29.11,14.0,SSE,4.6,-,N/A,Snow,Light Snow,160,2013-11-16 01:00:00
8:00 PM,-4.0,-9.4,78,29.11,12.0,Calm,Calm,-,N/A,Snow,Light Snow,0,2013-11-16 02:00:00
9:00 PM,-4.0,-7.6,85,29.12,12.0,Calm,Calm,-,N/A,Snow,Light Snow,0,2013-11-16 03:00:00
10:00 PM,-7.6,-13.0,77,29.13,10.0,West,5.8,-,N/A,Snow,Light Snow,280,2013-11-16 04:00:00
11:00 PM,-5.8,-11.2,77,29.15,8.0,WNW,3.5,-,N/A,Snow,Light Snow,290,2013-11-16 05:00:00